When you browse on this site, cookies collect data to enhance your experience and personalize the content and advertising you see.
Visit our Privacy Policy to learn more. By continuing to use the site, you agree to this use of cookies and data.
  • In Hungary
  • List of Countries
  • For 7 days
  • Water Temperature
  • Weather Map
  • News
  • Weather Widgets
  • user-avatar
    Login

    Hourly Weather Koszelowka

    Today, 23 February, Sunday

    Time Temperature Precipitation Wind Pressure Humidity
    00:00 +6°C° 0.4 mm 9 mps 750 mmHg 69%
    01:00 +5°C° 0 mm 8 mps 750 mmHg 74%
    02:00 +5°C° 0 mm 8 mps 750 mmHg 73%
    03:00 +4°C° 0 mm 8 mps 750 mmHg 72%
    04:00 +4°C° 0 mm 8 mps 750 mmHg 71%
    05:00 +4°C° 0.1 mm 7 mps 750 mmHg 73%
    06:00 +3°C° 0.1 mm 6 mps 750 mmHg 76%
    07:00 +3°C° 0 mm 5 mps 751 mmHg 78%
    08:00 +4°C° 0.1 mm 7 mps 751 mmHg 73%
    09:00 +4°C° 0.1 mm 8 mps 750 mmHg 68%
    10:00 +5°C° 0.1 mm 9 mps 750 mmHg 64%
    11:00 +5°C° 0.1 mm 8 mps 750 mmHg 62%
    12:00 +6°C° 0.1 mm 8 mps 749 mmHg 60%
    13:00 +6°C° 0.1 mm 7 mps 749 mmHg 59%
    14:00 +5°C° 0.1 mm 6 mps 747 mmHg 67%
    15:00 +4°C° 0.1 mm 6 mps 746 mmHg 75%
    16:00 +3°C° 0.1 mm 5 mps 744 mmHg 83%
    17:00 +4°C° 0.8 mm 4 mps 743 mmHg 87%
    18:00 +4°C° 0.8 mm 4 mps 742 mmHg 90%
    19:00 +3°C° 0.8 mm 3 mps 740 mmHg 94%
    20:00 +4°C° 0.6 mm 3 mps 740 mmHg 94%
    21:00 +5°C° 0.6 mm 2 mps 739 mmHg 94%
    22:00 +5°C° 0.6 mm 2 mps 738 mmHg 94%
    23:00 +3°C° 0.6 mm 5 mps 740 mmHg 91%

    Tomorrow, 24 February, Monday

    Time Temperature Precipitation Wind Pressure Humidity
    00:00 +3°C° 0.6 mm 7 mps 741 mmHg 88%
    01:00 +2°C° 0.6 mm 10 mps 743 mmHg 85%
    02:00 +1°C° 0 mm 10 mps 744 mmHg 81%
    03:00 +1°C° 0 mm 10 mps 745 mmHg 77%
    04:00 +1°C° 0 mm 9 mps 747 mmHg 72%
    05:00 +1°C° 0 mm 9 mps 748 mmHg 75%
    06:00 +1°C° 0 mm 9 mps 749 mmHg 78%
    07:00 0°C° 0 mm 9 mps 750 mmHg 81%
    08:00 +1°C° 0 mm 9 mps 751 mmHg 78%
    09:00 +2°C° 0 mm 8 mps 751 mmHg 75%
    10:00 +2°C° 0 mm 8 mps 752 mmHg 72%
    11:00 +2°C° 0 mm 8 mps 752 mmHg 70%
    12:00 +4°C° 0 mm 7 mps 753 mmHg 69%
    13:00 +4°C° 0 mm 7 mps 753 mmHg 67%
    14:00 +4°C° 0 mm 6 mps 753 mmHg 67%
    15:00 +4°C° 0 mm 6 mps 753 mmHg 67%
    16:00 +5°C° 0 mm 5 mps 753 mmHg 67%
    17:00 +3°C° 0 mm 5 mps 752 mmHg 70%
    18:00 +4°C° 0 mm 4 mps 752 mmHg 73%
    19:00 +3°C° 0 mm 4 mps 752 mmHg 76%
    20:00 +3°C° 0 mm 4 mps 751 mmHg 77%
    21:00 +3°C° 0 mm 4 mps 750 mmHg 78%
    22:00 +3°C° 0 mm 4 mps 749 mmHg 79%
    23:00 +1°C° 0.6 mm 5 mps 748 mmHg 84%

    Day after tomorrow, 25 February, Tuesday

    Time Temperature Precipitation Wind Pressure Humidity
    00:00 +1°C° 0.6 mm 6 mps 747 mmHg 90%
    01:00 -1°C° 0.6 mm 6 mps 745 mmHg 96%
    02:00 +1°C° 1.4 mm 6 mps 744 mmHg 94%
    03:00 +2°C° 1.4 mm 6 mps 743 mmHg 92%
    04:00 +3°C° 1.4 mm 6 mps 741 mmHg 90%
    05:00 +4°C° 0.5 mm 6 mps 741 mmHg 90%
    06:00 +5°C° 0.5 mm 6 mps 741 mmHg 90%
    07:00 +6°C° 0.5 mm 7 mps 740 mmHg 90%
    08:00 +6°C° 0.1 mm 7 mps 740 mmHg 86%
    09:00 +7°C° 0.1 mm 8 mps 740 mmHg 82%
    10:00 +9°C° 0.1 mm 8 mps 740 mmHg 78%
    11:00 +9°C° 0.1 mm 8 mps 740 mmHg 73%
    12:00 +9°C° 0.1 mm 8 mps 740 mmHg 69%
    13:00 +9°C° 0.1 mm 8 mps 739 mmHg 64%
    14:00 +9°C° 0.1 mm 8 mps 739 mmHg 67%
    15:00 +8°C° 0.1 mm 7 mps 738 mmHg 70%
    16:00 +8°C° 0.1 mm 7 mps 738 mmHg 72%
    17:00 +7°C° 0 mm 6 mps 738 mmHg 71%
    18:00 +5°C° 0 mm 6 mps 738 mmHg 69%
    19:00 +5°C° 0 mm 6 mps 738 mmHg 67%
    20:00 +4°C° 0 mm 6 mps 738 mmHg 68%
    21:00 +3°C° 0 mm 6 mps 739 mmHg 68%
    22:00 +2°C° 0 mm 6 mps 739 mmHg 68%
    23:00 +2°C° 0 mm 6 mps 739 mmHg 68%

    26 February, Wednesday

    Time Temperature Precipitation Wind Pressure Humidity
    00:00 +2°C° 0 mm 6 mps 739 mmHg 69%
    01:00 +1°C° 0 mm 6 mps 739 mmHg 69%
    02:00 +1°C° 0 mm 6 mps 739 mmHg 70%
    03:00 +1°C° 0 mm 6 mps 738 mmHg 72%
    04:00 -1°C° 0 mm 6 mps 738 mmHg 73%
    05:00 -1°C° 0 mm 6 mps 738 mmHg 75%
    06:00 -1°C° 0 mm 6 mps 738 mmHg 77%
    07:00 -1°C° 0 mm 5 mps 738 mmHg 79%
    08:00 -1°C° 0 mm 6 mps 738 mmHg 74%
    09:00 +2°C° 0 mm 6 mps 738 mmHg 68%
    10:00 +3°C° 0 mm 7 mps 738 mmHg 63%
    11:00 +4°C° 0 mm 7 mps 738 mmHg 61%
    12:00 +4°C° 0 mm 7 mps 737 mmHg 59%
    13:00 +5°C° 0 mm 6 mps 737 mmHg 56%
    14:00 +4°C° 0.4 mm 7 mps 737 mmHg 64%
    15:00 +3°C° 0.4 mm 7 mps 737 mmHg 71%
    16:00 +2°C° 0.4 mm 7 mps 737 mmHg 78%
    17:00 +2°C° 0 mm 7 mps 737 mmHg 76%
    18:00 +1°C° 0 mm 6 mps 738 mmHg 74%
    19:00 +1°C° 0 mm 6 mps 738 mmHg 71%
    20:00 +1°C° 0 mm 5 mps 739 mmHg 73%
    21:00 0°C° 0 mm 5 mps 739 mmHg 75%
    22:00 0°C° 0 mm 4 mps 739 mmHg 77%
    23:00 0°C° 0 mm 4 mps 740 mmHg 79%

    27 February, Thursday

    Time Temperature Precipitation Wind Pressure Humidity
    00:00 0°C° 0 mm 3 mps 740 mmHg 81%
    01:00 +1°C° 0 mm 2 mps 740 mmHg 83%
    02:00 0°C° 0 mm 3 mps 740 mmHg 84%
    03:00 0°C° 0 mm 3 mps 741 mmHg 86%
    04:00 -2°C° 0 mm 4 mps 741 mmHg 87%
    05:00 -2°C° 0.3 mm 4 mps 741 mmHg 87%
    06:00 -2°C° 0.3 mm 5 mps 741 mmHg 87%
    07:00 -2°C° 0.3 mm 6 mps 742 mmHg 87%
    08:00 -2°C° 0 mm 6 mps 742 mmHg 84%
    09:00 -1°C° 0 mm 5 mps 743 mmHg 81%
    10:00 0°C° 0 mm 5 mps 743 mmHg 77%
    11:00 0°C° 0 mm 5 mps 743 mmHg 77%
    12:00 0°C° 0 mm 5 mps 744 mmHg 76%
    13:00 0°C° 0 mm 5 mps 744 mmHg 76%
    14:00 0°C° 0 mm 4 mps 744 mmHg 76%
    15:00 0°C° 0 mm 4 mps 744 mmHg 76%
    16:00 0°C° 0 mm 4 mps 744 mmHg 76%
    17:00 +1°C° 0 mm 3 mps 745 mmHg 78%
    18:00 0°C° 0 mm 3 mps 745 mmHg 79%
    19:00 -1°C° 0 mm 2 mps 745 mmHg 81%
    20:00 -1°C° 0 mm 2 mps 745 mmHg 81%
    21:00 -1°C° 0 mm 2 mps 744 mmHg 81%
    22:00 -1°C° 0 mm 2 mps 744 mmHg 81%
    23:00 -1°C° 0 mm 2 mps 743 mmHg 81%

    28 February, Friday

    Time Temperature Precipitation Wind Pressure Humidity
    00:00 -1°C° 0 mm 3 mps 743 mmHg 81%
    01:00 -1°C° 0 mm 3 mps 742 mmHg 81%
    02:00 -2°C° 0 mm 4 mps 741 mmHg 80%
    03:00 -2°C° 0 mm 5 mps 740 mmHg 79%
    04:00 -1°C° 0 mm 5 mps 739 mmHg 78%
    05:00 -3°C° 0.7 mm 6 mps 738 mmHg 84%
    06:00 -3°C° 0.7 mm 7 mps 737 mmHg 90%
    07:00 -4°C° 0.7 mm 8 mps 736 mmHg 96%
    08:00 -2°C° 1 mm 7 mps 735 mmHg 95%
    09:00 -2°C° 1 mm 7 mps 735 mmHg 94%
    10:00 -1°C° 1 mm 6 mps 735 mmHg 93%
    11:00 -1°C° 0.2 mm 6 mps 735 mmHg 94%
    12:00 0°C° 0.2 mm 5 mps 736 mmHg 95%
    13:00 -1°C° 0.2 mm 5 mps 737 mmHg 96%
    14:00 -2°C° 0.1 mm 6 mps 738 mmHg 95%
    15:00 -2°C° 0.1 mm 7 mps 740 mmHg 95%
    16:00 -3°C° 0.1 mm 9 mps 741 mmHg 95%
    17:00 -2°C° 0 mm 7 mps 743 mmHg 94%
    18:00 -2°C° 0 mm 6 mps 744 mmHg 93%
    19:00 -2°C° 0 mm 5 mps 745 mmHg 92%
    20:00 -2°C° 0 mm 4 mps 746 mmHg 92%
    21:00 -2°C° 0 mm 3 mps 746 mmHg 93%
    22:00 -3°C° 0 mm 2 mps 746 mmHg 94%
    23:00 -3°C° 0 mm 2 mps 746 mmHg 94%
    Show more